Change the Weather History Date:

Saturday, March 15, 2014

  Actual Average Record
Temperature  
Mean Temperature 46 °F -  
Max Temperature 57 °F - - ()
Min Temperature 36 °F - - ()
Degree Days  
Heating Degree Days 18    
Moisture  
Dew Point 19 °F    
Average Humidity 39    
Maximum Humidity 73    
Minimum Humidity 17    
Precipitation  
Precipitation 0.00 in - - ()
Sea Level Pressure  
Sea Level Pressure 29.19 in    
Wind  
Wind Speed 8 mph (NNW)    
Max Wind Speed 23 mph    
Max Gust Speed 16 mph    
Visibility 10 miles    
Events      
T = Trace of Precipitation, MM = Missing Value Source: NWS Daily Summary

Daily Weather History Graph

Daily Weather History Graph

Search for Another Location

Airport or City:

Trip Planner

Search our weather history database for the weather conditions in past years. The results will help you decide how hot, cold, wet, or windy it might be!

Date:

Astronomy

Mar. 15, 2014 Rise Set
Actual Time 7:43 AM MDT 7:39 PM MDT
Civil Twilight 7:16 AM MDT 8:06 PM MDT
Nautical Twilight 6:44 AM MDT 8:38 PM MDT
Astronomical Twilight 6:12 AM MDT 9:10 PM MDT
Moon 7:02 PM MDT (3/15) 6:58 AM MDT (3/15)
Length of Visible Light 12h 50m
Length of Day
11h 55m
Waxing Gibbous, 99% of the Moon is Illuminated
Mar 15
Waxing Gibbous
Mar 16
Full
Mar 23
Last Quarter
Mar 30
New
Apr 7
First Quarter

Hourly Weather History & Observations

Time (MDT) Temp. Windchill Dew Point Humidity Pressure Visibility Wind Dir Wind Speed Gust Speed Precip Events Conditions
12:58 AM 37.0 °F - 27.0 °F 67% 29.06 in 10.0 mi Calm Calm - N/A   Clear
1:58 AM 36.0 °F 30.3 °F 28.0 °F 73% 29.06 in 10.0 mi South 6.9 mph - N/A   Clear
2:58 AM 37.0 °F 30.4 °F 27.0 °F 67% 29.06 in 10.0 mi WSW 9.2 mph - N/A   Clear
3:58 AM 37.9 °F 32.1 °F 25.0 °F 60% 29.07 in 10.0 mi WSW 8.1 mph - N/A   Clear
4:58 AM 36.0 °F 28.5 °F 21.9 °F 57% 29.07 in 10.0 mi WSW 10.4 mph - N/A   Clear
5:58 AM 41.0 °F 31.4 °F 18.0 °F 40% 29.09 in 10.0 mi NW 21.9 mph - N/A   Clear
6:58 AM 39.9 °F 29.7 °F 19.9 °F 45% 29.10 in 10.0 mi WNW 23.0 mph - N/A   Clear
7:58 AM 37.9 °F 28.2 °F 21.9 °F 53% 29.14 in 10.0 mi NW 18.4 mph - N/A   Clear
8:58 AM 42.1 °F 40.2 °F 21.0 °F 43% 29.19 in 10.0 mi Variable 3.5 mph - N/A   Clear
9:58 AM 46.0 °F 41.9 °F 23.0 °F 40% 29.21 in 10.0 mi NNW 8.1 mph - N/A   Clear
10:58 AM 48.9 °F - 19.9 °F 32% 29.23 in 10.0 mi NW 12.7 mph - N/A   Clear
11:58 AM 51.1 °F - 19.9 °F 29% 29.24 in 10.0 mi North 11.5 mph 16.1 mph N/A   Clear
12:58 PM 51.1 °F - 17.1 °F 26% 29.26 in 10.0 mi North 8.1 mph - N/A   Clear
1:58 PM 52.0 °F - 18.0 °F 26% 29.25 in 10.0 mi ENE 10.4 mph - N/A   Clear
2:58 PM 53.1 °F - 15.1 °F 22% 29.25 in 10.0 mi Calm Calm - N/A   Clear
3:58 PM 53.1 °F - 14.0 °F 21% 29.25 in 10.0 mi Calm Calm - N/A   Clear
4:58 PM 57.0 °F - 12.0 °F 17% 29.24 in 10.0 mi NE 6.9 mph - N/A   Clear
5:58 PM 57.0 °F - 12.9 °F 18% 29.23 in 10.0 mi East 3.5 mph - N/A   Clear
6:58 PM 54.0 °F - 14.0 °F 21% 29.23 in 10.0 mi East 6.9 mph - N/A   Clear
7:58 PM 46.9 °F - 18.0 °F 32% 29.24 in 10.0 mi SE 9.2 mph - N/A   Clear
8:58 PM 44.1 °F 39.0 °F 18.0 °F 35% 29.25 in 10.0 mi SE 9.2 mph - N/A   Clear
9:58 PM 43.0 °F 39.5 °F 17.1 °F 35% 29.24 in 10.0 mi SSE 5.8 mph - N/A   Clear
10:58 PM 42.1 °F 37.1 °F 18.0 °F 38% 29.26 in 10.0 mi SE 8.1 mph - N/A   Clear
11:58 PM 39.9 °F 35.1 °F 17.1 °F 40% 29.27 in 10.0 mi SSE 6.9 mph - N/A   Clear